[[{"header":{"parameterUnit":"m.s-1","parameterCategory":1,"la1":30.2991,"la2":30.254,"lo1":-89.0895,"lo2":-89.0444,"dy":0.0017,"dx":0.0017,"nx":28,"ny":28,"refTime":"2024-02-20T09:00:00:Z","depth":0,"parameterNumber":2,"parameterNumberName":"U-component_of_WINDS"},"data":[0,0,0,0,0,0,0,0,0,0,0,0,0,0,0,0,0,0,0,0,0,0,0,0,0,0,0,0,0,0,0,0,0,0,0,0,0,0,0,0,0,0,0,0,0,0,0,0,0,0,0,0,0,0,0,0,0,0,0.6549,0.6549,0,0.6546,0.6546,0.6546,0.6475,0.6474,0.6472,0.647,0.6469,0.6471,0.6473,0,0,0,0,0,0,0,0,0,0,0,0,0,0.6494,0.6495,0.6549,0.6549,0.6549,0.6546,0.6546,0.6546,0.6476,0.6474,0.6471,0.6469,0.6469,0.6471,0.6473,0,0,0,0,0,0,0,0,0,0,0,0,0,0.6507,0.6496,0.6549,0.6513,0.651,0.6546,0.6546,0.6546,0.6476,0.6474,0.6471,0.6468,0.6468,0.647,0.6473,0.6544,0,0,0.6481,0.6482,0,0,0,0,0,0,0,0,0.6507,0.6509,0.6519,0.6516,0.6512,0.6508,0.6526,0.6545,0.6477,0.6489,0.647,0.6467,0.6485,0.6486,0.6491,0.6543,0.6543,0.6481,0.6482,0.6484,0.6484,0,0,0,0,0,0,0,0.6506,0.6509,0.6548,0.6519,0.6515,0.6498,0.6497,0.653,0.6502,0.6488,0.6483,0.6483,0.6482,0.6489,0.6491,0.6543,0.6481,0.6483,0.6485,0.6486,0.6653,0.6655,0,0,0,0,0,0,0.651,0.6509,0.6548,0.6548,0.6503,0.6501,0.65,0.6512,0.6502,0.6498,0.6486,0.648,0.6486,0.6488,0.649,0.6572,0.6484,0.6486,0.6487,0.665,0.6653,0.6656,0,0,0,0,0,0,0.6509,0.6514,0.6548,0.6527,0.653,0.6505,0.652,0.6514,0.652,0.65,0.6495,0.6497,0.6484,0.6487,0.653,0.6571,0.6487,0.6489,0.6646,0.6651,0.6655,0.6736,0,0,0,0,0,0,0.6507,0.6514,0.654,0.6528,0.6531,0.6588,0.6522,0.6516,0.6525,0.6517,0.651,0.6506,0.6482,0.6527,0.6533,0.6573,0.6491,0.6643,0.6648,0.6653,0.673,0.6743,0.6754,0,0,0,0,0,0.6506,0.6564,0.6542,0.6547,0.6564,0.6591,0.6593,0.6564,0.6528,0.6555,0.6541,0.6506,0.6565,0.6532,0.6538,0.6579,0.664,0.6647,0.6653,0.6724,0.674,0.6753,0,0,0,0,0,0,0.6583,0.6562,0.6537,0.6593,0.6594,0.6579,0.6611,0.6581,0.6593,0.6586,0.6549,0.6548,0.6598,0.6593,0.6556,0.6647,0.6596,0.6604,0.6648,0.6663,0.6675,0.6676,0.6493,0,0,0,0,0,0.6606,0.6629,0.661,0.6661,0.6662,0.6637,0.6648,0.6625,0.6625,0.6625,0.6615,0.6617,0.6636,0.6649,0.6665,0.6728,0.6725,0.6759,0.6771,0.6781,0.6789,0.6821,0.6836,0.6678,0.6678,0.6678,0,0,0.6655,0.6646,0.6663,0.6676,0.6674,0.6699,0.6638,0.6667,0.6686,0.663,0.667,0.6663,0.6662,0.6716,0.6739,0.6713,0.6832,0.679,0.6798,0.68,0.683,0.6845,0.6858,0.6682,0.6682,0.6681,0,0,0.6756,0.6752,0.6794,0.6793,0.679,0.6773,0.6783,0.6772,0.6765,0.6805,0.6763,0.6784,0.6818,0.6819,0.6824,0.6925,0.6892,0.6931,0.6994,0.7026,0.7039,0.7049,0.7085,0.7099,0.6938,0.6939,0.6939,0,0.6818,0.6853,0.6819,0.6851,0.6858,0.6807,0.685,0.685,0.6854,0.686,0.6831,0.6871,0.6867,0.692,0.6944,0.695,0.6961,0.6932,0.7039,0.705,0.706,0.7094,0.7107,0.6943,0.6943,0.6942,0.6942,0,0.6928,0.6954,0.6988,0.6991,0.7002,0.7039,0.7011,0.7026,0.7002,0.6987,0.7028,0.7022,0.7035,0.7046,0.7023,0.7096,0.708,0.7046,0.6994,0.708,0.7111,0.7124,0.695,0.6948,0.6947,0.6946,0,0,0.708,0.7063,0.7076,0.7076,0.707,0.7089,0.7123,0.7136,0.7149,0.7153,0.7181,0.721,0.7178,0.7184,0.716,0.7188,0.7268,0.7151,0.715,0.7173,0.7347,0.7373,0.7389,0.7247,0.7249,0.7251,0.7348,0,0.7178,0.7235,0.7205,0.7266,0.7289,0.7241,0.7271,0.727,0.7257,0.7275,0.7261,0.7282,0.7238,0.7241,0.7267,0.7253,0.7303,0.7246,0.7273,0.7274,0.7275,0.7405,0.7433,0.7524,0.736,0.7362,0.7363,0,0.73,0.7308,0.7371,0.7359,0.7368,0.7395,0.7404,0.7421,0.7419,0.7408,0.7414,0.7384,0.7417,0.7365,0.741,0.7372,0.7381,0.7376,0.7379,0.7381,0.7324,0.7411,0.7553,0.7567,0.7382,0.738,0.7379,0,0.7404,0.743,0.7471,0.7474,0.746,0.7481,0.7476,0.7471,0.7481,0.7488,0.7494,0.7506,0.7513,0.7523,0.7496,0.7461,0.7545,0.7492,0.7537,0.7538,0.7557,0.7556,0.7703,0.7563,0.7563,0.7562,0.7562,0,0.7517,0.7558,0.7518,0.7543,0.7587,0.7552,0.7597,0.7588,0.7584,0.7606,0.7565,0.7588,0.7552,0.7571,0.7551,0.7591,0.7594,0.7586,0.758,0.759,0.7591,0.7596,0.7589,0.7566,0.7565,0.7564,0.7564,0,0.7641,0.7616,0.7657,0.7641,0.7638,0.7671,0.7657,0.768,0.7664,0.7693,0.7698,0.7673,0.7693,0.7668,0.7686,0.7672,0.7727,0.7712,0.7728,0.7724,0.777,0.7766,0.7925,0.7944,0.7792,0.7793,0.7795,0,0.7714,0.7744,0.7731,0.7743,0.774,0.776,0.7769,0.7736,0.7747,0.7746,0.7769,0.7786,0.7797,0.7831,0.7815,0.7829,0.7813,0.7868,0.7815,0.7824,0.7814,0.7813,0.7815,0.7879,0.7881,0.7882,0.7884,0,0.7848,0.7834,0.7848,0.7857,0.7869,0.7875,0.7878,0.789,0.7855,0.787,0.7889,0.7898,0.7916,0.7932,0.7941,0.7937,0.7905,0.79,0.7911,0.7922,0.793,0.7926,0.7758,0.7897,0.7896,0.7895,0.7894,0.7893,0.7949,0.7973,0.7967,0.7984,0.7982,0.7986,0.8006,0.7992,0.8008,0.8019,0.7998,0.8023,0.802,0.8028,0.8027,0.8046,0.8023,0.8039,0.8043,0.8048,0.8055,0.7926,0.8048,0.8047,0.8047,0.8047,0.8046,0,0.808,0.8074,0.8089,0.8094,0.8107,0.8075,0.8076,0.809,0.8112,0.8111,0.8122,0.8145,0.816,0.8145,0.8158,0.8176,0.8162,0.8181,0.8179,0.8179,0.8075,0.8064,0.8192,0.8192,0.8192,0.8192,0.8192,0.8192,0.815,0.8189,0.8174,0.8212,0.8205,0.8228,0.8232,0.8235,0.8234,0.826,0.8273,0.8262,0.8256,0.8267,0.8281,0.8276,0.8282,0.8307,0.8297,0.82,0.8186,0.8173,0.8162,0.8309,0.8309,0.8399,0.84,0.84]},{"header":{"parameterUnit":"m.s-1","parameterCategory":1,"la1":30.2991,"la2":30.254,"lo1":-89.0895,"lo2":-89.0444,"dy":0.0017,"dx":0.0017,"nx":28,"ny":28,"refTime":"2024-02-20T09:00:00:Z","depth":0,"parameterNumber":3,"parameterNumberName":"V-component_of_WINDS"},"data":[0,0,0,0,0,0,0,0,0,0,0,0,0,0,0,0,0,0,0,0,0,0,0,0,0,0,0,0,0,0,0,0,0,0,0,0,0,0,0,0,0,0,0,0,0,0,0,0,0,0,0,0,0,0,0,0,0,0,0.1409,0.1408,0,0.1386,0.1386,0.1386,0.1351,0.135,0.135,0.1349,0.1327,0.1327,0.1327,0,0,0,0,0,0,0,0,0,0,0,0,0,0.1422,0.1422,0.1409,0.1408,0.1408,0.1386,0.1386,0.1386,0.1351,0.135,0.135,0.1349,0.1327,0.1327,0.1327,0,0,0,0,0,0,0,0,0,0,0,0,0,0.1409,0.1422,0.1409,0.1388,0.1386,0.1386,0.1386,0.1385,0.1351,0.135,0.135,0.1349,0.1327,0.1327,0.1327,0.1345,0,0,0.1327,0.1327,0,0,0,0,0,0,0,0,0.141,0.1409,0.1391,0.139,0.1387,0.137,0.1382,0.1372,0.1352,0.1365,0.1349,0.1348,0.1342,0.1341,0.1339,0.1344,0.1343,0.1327,0.1327,0.1327,0.1327,0,0,0,0,0,0,0,0.1411,0.141,0.14,0.1391,0.1389,0.138,0.1377,0.138,0.1359,0.1363,0.1361,0.1359,0.1341,0.1339,0.1338,0.1343,0.1327,0.1327,0.1327,0.1327,0.1362,0.1363,0,0,0,0,0,0,0.1415,0.1411,0.14,0.1399,0.1397,0.1381,0.1378,0.1377,0.1359,0.1355,0.1359,0.1357,0.1339,0.1338,0.1337,0.1357,0.1327,0.1327,0.1327,0.1361,0.1362,0.1363,0,0,0,0,0,0,0.1415,0.1414,0.1401,0.1404,0.1402,0.1382,0.1381,0.1377,0.1375,0.1356,0.1352,0.1361,0.1339,0.1337,0.1343,0.1356,0.1327,0.1327,0.136,0.1361,0.1363,0.1398,0,0,0,0,0,0,0.1416,0.1415,0.1421,0.1405,0.1402,0.1408,0.1382,0.1377,0.1375,0.1371,0.1356,0.1353,0.1338,0.1344,0.1343,0.1355,0.1327,0.1359,0.1361,0.1362,0.1395,0.14,0.1404,0,0,0,0,0,0.1416,0.1432,0.1422,0.1421,0.141,0.1409,0.1407,0.1389,0.1376,0.1382,0.137,0.1354,0.1355,0.1345,0.1344,0.1356,0.1358,0.136,0.1362,0.1393,0.1399,0.1404,0,0,0,0,0,0,0.1451,0.143,0.1418,0.1429,0.1421,0.1403,0.1411,0.1396,0.1392,0.1389,0.1367,0.1364,0.1373,0.1365,0.1354,0.1373,0.1354,0.1356,0.1377,0.1383,0.1387,0.1389,0.1327,0,0,0,0,0,0.146,0.1461,0.1442,0.1454,0.145,0.1431,0.143,0.1417,0.1408,0.1404,0.1393,0.1385,0.1383,0.1383,0.138,0.1394,0.139,0.1402,0.1406,0.141,0.1412,0.1419,0.1424,0.137,0.137,0.137,0,0,0.1479,0.1467,0.1469,0.146,0.1453,0.1454,0.1429,0.1431,0.1432,0.1405,0.141,0.1401,0.1391,0.1401,0.1405,0.1395,0.1426,0.1413,0.1416,0.1416,0.1421,0.1426,0.1431,0.1372,0.1372,0.1371,0,0,0.1513,0.1505,0.1513,0.1506,0.1494,0.1481,0.1484,0.1468,0.1461,0.1466,0.1445,0.1446,0.1444,0.1437,0.1433,0.1465,0.1449,0.1465,0.1488,0.1494,0.1499,0.1502,0.1513,0.1518,0.1467,0.1467,0.1467,0,0.1538,0.1539,0.1519,0.1523,0.152,0.1495,0.1503,0.1497,0.1486,0.1484,0.1473,0.1469,0.1461,0.1469,0.1476,0.1474,0.1476,0.1466,0.15,0.1503,0.1506,0.1516,0.1521,0.1469,0.1469,0.1469,0.1468,0,0.1569,0.1571,0.1579,0.1568,0.1566,0.1572,0.1553,0.1553,0.154,0.1529,0.1534,0.1522,0.1517,0.1518,0.1505,0.1524,0.1518,0.1504,0.1484,0.1514,0.1523,0.1527,0.1472,0.1471,0.147,0.147,0,0,0.1625,0.1603,0.1607,0.1601,0.1587,0.1587,0.1592,0.1587,0.1587,0.158,0.1584,0.1582,0.1569,0.1565,0.1551,0.1557,0.1582,0.1542,0.1541,0.1549,0.1602,0.1613,0.1618,0.1572,0.1573,0.1573,0.1603,0,0.1656,0.1663,0.1646,0.1657,0.1658,0.1634,0.1639,0.163,0.162,0.1619,0.1607,0.1606,0.1589,0.1586,0.1591,0.1578,0.1593,0.1576,0.1575,0.1575,0.1578,0.1622,0.1634,0.1662,0.1606,0.1607,0.1607,0,0.1694,0.1688,0.17,0.1684,0.1684,0.1688,0.1682,0.1681,0.1671,0.1663,0.1658,0.1642,0.1646,0.1627,0.1632,0.1621,0.162,0.1614,0.1614,0.1613,0.1593,0.1622,0.1671,0.1675,0.1613,0.1612,0.1612,0,0.1733,0.1729,0.1735,0.1731,0.1713,0.1717,0.171,0.1699,0.1696,0.1691,0.1689,0.1684,0.1681,0.1678,0.1661,0.1649,0.1667,0.1647,0.166,0.1661,0.1665,0.1665,0.1714,0.1665,0.1665,0.1665,0.1665,0,0.1769,0.1777,0.1752,0.1756,0.1764,0.1744,0.1752,0.1743,0.1733,0.1735,0.1714,0.1716,0.1693,0.1693,0.168,0.1685,0.1684,0.1678,0.1674,0.1679,0.168,0.1678,0.1675,0.1666,0.1666,0.1666,0.1665,0,0.1814,0.1798,0.1803,0.1786,0.1782,0.1788,0.1773,0.1776,0.1764,0.1766,0.1766,0.1747,0.1745,0.1728,0.1722,0.1714,0.1724,0.1717,0.1728,0.1725,0.1739,0.1738,0.1788,0.1793,0.1741,0.1742,0.1742,0,0.1839,0.1844,0.1827,0.1827,0.1821,0.182,0.1818,0.1798,0.1796,0.1785,0.1789,0.1786,0.1782,0.178,0.1766,0.1761,0.1754,0.1771,0.1753,0.1758,0.1753,0.1753,0.1753,0.1775,0.1776,0.1777,0.1777,0,0.1883,0.1875,0.1872,0.1866,0.1864,0.1859,0.1852,0.1853,0.1831,0.183,0.1828,0.1825,0.1819,0.1816,0.1809,0.1801,0.1786,0.1783,0.1786,0.1791,0.1797,0.1794,0.1738,0.1782,0.1781,0.1781,0.1781,0.1781,0.1918,0.1922,0.1911,0.1908,0.1901,0.1896,0.1897,0.1885,0.1883,0.1877,0.1865,0.1865,0.1854,0.1843,0.1837,0.1836,0.1827,0.1831,0.1832,0.1833,0.1836,0.1797,0.1835,0.1835,0.1835,0.1835,0.1835,0,0.1962,0.1953,0.1951,0.1943,0.1941,0.1926,0.1918,0.1917,0.1917,0.1909,0.1905,0.1902,0.1899,0.1885,0.188,0.1882,0.1874,0.1881,0.1881,0.1879,0.1845,0.1843,0.1887,0.1887,0.1887,0.1887,0.1887,0.1887,0.1984,0.1989,0.198,0.1981,0.1972,0.1972,0.1968,0.1963,0.1956,0.1954,0.1951,0.1942,0.1931,0.1925,0.1921,0.1917,0.1916,0.1925,0.1918,0.1887,0.1882,0.1877,0.1875,0.1925,0.1925,0.1952,0.1953,0.1953]}]]